Weather in Marinivka

Ukraine / Mykolaiv District     47°46′19″N   30°52′51″E
temp.,
°C
wind,
m/s
gust,
m/s
humid.,
%
clouds,
%
prec.,
mm/h
press.,
hPa
HPBL,
m
9 march, tue
tue923:00−1nw487850 0.0 1017242
02:00−2nw487872 0.0 1019405
05:00−3nw47760 0.0 1019372
08:00−2nnw57630 0.0 1020691
11:00+1nnw565428 0.0 10221254
14:00+1nnw455264 0.0 10221390
17:000nnw3460100 0.0 10221054
20:00−2nne227554 0.0 102442
10 march, wed
wed1023:00−3ene22770 0.0 102557
02:00−3e24774 0.0 1026181
05:00−3e457698 0.0 1025424
08:00−3e455999 0.0 1026441
11:00−1e4540100 0.0 1025893
14:00+1e4435100 0.0 10251205
17:000ene4545100 0.0 1023418
20:00−2ene4854100 0.0 1025341
11 march, thu
thu1123:00−3e4854100 0.0 1025392
02:00−3ene375796 0.0 1025317
05:00−4ene475640 0.0 1025341
08:00−3ene464862 0.0 1027579
11:00+1e453325 0.0 10271199
14:00+2e333222 0.0 10261586
17:00+1ene354318 0.0 1026291
20:00−2e48569 0.0 1027182
12 march, fri
fri1223:00−3ese37610 0.0 1028182
02:00−3se49600 0.0 1028361
05:00−4se595627 0.0 1028398
08:00−3se7105163 0.0 1028506
11:00+1sse7104799 0.0 10271067
14:00+2s10125187 0.0 10251260
17:000s8115593 0.0 10251006
20:00−2sse8137296 0.3 1025771
13 march, sat
sat1323:00−2sse91495100 1.9 1025720
02:00−2sse61294100 2.9 1024588
05:00−2se71097100 2.0 1023337
08:00+1sse48100100 3.8 1024282
11:00+2s71299100 1.2 1024483
14:00+2s71299100 2.0 1023637
17:00+1s61198100 0.8 1022536
20:00+1sse41097100 0.8 1023478